Time,TemperatureF,DewpointF,PressureIn,WindDirection,WindDirectionDegrees,WindSpeedMPH,WindSpeedGustMPH,Humidity,HourlyPrecipIn,Conditions,Clouds,dailyrainin,SolarRadiationWatts/m^2,SoftwareType,DateUTC
2013-12-04 00:00:00,44.0,43.0,-100.00,SE,135,0.0,-999.0,96,-99.99,,,-99.99,0.000000,,2013-12-04 05:00:00,
2013-12-04 00:42:00,44.0,43.0,-100.00,SE,135,0.0,-999.0,96,-99.99,,,-99.99,0.000000,,2013-12-04 05:42:00,
2013-12-04 00:53:00,44.0,43.0,-100.00,SE,135,0.0,-999.0,96,-99.99,,,-99.99,0.000000,,2013-12-04 05:53:00,
2013-12-04 01:00:00,43.0,42.0,-100.00,ESE,112,1.0,-999.0,97,-99.99,,,-99.99,0.000000,,2013-12-04 06:00:00,
2013-12-04 01:42:00,43.0,42.0,-100.00,ESE,112,1.0,-999.0,97,-99.99,,,-99.99,0.000000,,2013-12-04 06:42:00,
2013-12-04 01:52:00,43.0,42.0,-100.00,ESE,112,1.0,-999.0,97,-99.99,,,-99.99,0.000000,,2013-12-04 06:52:00,
2013-12-04 02:00:00,43.0,42.0,-100.00,SE,135,0.0,-999.0,97,-99.99,,,-99.99,0.000000,,2013-12-04 07:00:00,
2013-12-04 02:42:00,43.0,42.0,-100.00,SE,135,0.0,-999.0,97,-99.99,,,-99.99,0.000000,,2013-12-04 07:42:00,
2013-12-04 02:52:00,43.0,42.0,-100.00,SE,135,0.0,-999.0,97,-99.99,,,-99.99,0.000000,,2013-12-04 07:52:00,
2013-12-04 03:00:00,41.0,41.0,-100.00,SSW,202,0.0,-999.0,97,-99.99,,,-99.99,0.000000,,2013-12-04 08:00:00,
2013-12-04 03:42:00,41.0,41.0,-100.00,SSW,202,0.0,-999.0,97,-99.99,,,-99.99,0.000000,,2013-12-04 08:42:00,
2013-12-04 03:52:00,41.0,41.0,-100.00,SSW,202,0.0,-999.0,97,-99.99,,,-99.99,0.000000,,2013-12-04 08:52:00,
2013-12-04 04:00:00,42.0,41.0,-100.00,East,90,0.0,-999.0,98,-99.99,,,-99.99,0.000000,,2013-12-04 09:00:00,
2013-12-04 04:43:00,42.0,41.0,-100.00,East,90,0.0,-999.0,98,-99.99,,,-99.99,0.000000,,2013-12-04 09:43:00,
2013-12-04 04:54:00,42.0,41.0,-100.00,East,90,0.0,-999.0,98,-99.99,,,-99.99,0.000000,,2013-12-04 09:54:00,
2013-12-04 05:00:00,43.0,42.0,-100.00,ESE,112,0.0,-999.0,98,-99.99,,,-99.99,0.000000,,2013-12-04 10:00:00,
2013-12-04 05:43:00,43.0,42.0,-100.00,ESE,112,0.0,-999.0,98,-99.99,,,-99.99,0.000000,,2013-12-04 10:43:00,
2013-12-04 05:53:00,43.0,42.0,-100.00,ESE,112,0.0,-999.0,98,-99.99,,,-99.99,0.000000,,2013-12-04 10:53:00,
2013-12-04 06:00:00,42.0,42.0,-100.00,East,90,0.0,-999.0,98,-99.99,,,-99.99,0.000000,,2013-12-04 11:00:00,
2013-12-04 06:42:00,42.0,42.0,-100.00,East,90,0.0,-999.0,98,-99.99,,,-99.99,0.000000,,2013-12-04 11:42:00,
2013-12-04 06:53:00,42.0,42.0,-100.00,East,90,0.0,-999.0,98,-99.99,,,-99.99,0.000000,,2013-12-04 11:53:00,
2013-12-04 07:00:00,43.0,42.0,-100.00,East,90,1.0,-999.0,98,-99.99,,,-99.99,0.000000,,2013-12-04 12:00:00,
2013-12-04 07:42:00,43.0,42.0,-100.00,East,90,1.0,-999.0,98,-99.99,,,-99.99,0.000000,,2013-12-04 12:42:00,
2013-12-04 07:52:00,43.0,42.0,-100.00,East,90,1.0,-999.0,98,-99.99,,,-99.99,0.000000,,2013-12-04 12:52:00,
2013-12-04 08:00:00,43.0,43.0,-100.00,East,90,1.0,-999.0,98,-99.99,,,-99.99,0.000000,,2013-12-04 13:00:00,
2013-12-04 08:42:00,43.0,43.0,-100.00,East,90,1.0,-999.0,98,-99.99,,,-99.99,0.000000,,2013-12-04 13:42:00,
2013-12-04 08:52:00,43.0,43.0,-100.00,East,90,1.0,-999.0,98,-99.99,,,-99.99,0.000000,,2013-12-04 13:52:00,
2013-12-04 09:00:00,45.0,44.0,-100.00,SE,135,2.0,-999.0,98,-99.99,,,-99.99,16.240000,,2013-12-04 14:00:00,
2013-12-04 09:42:00,45.0,44.0,-100.00,SE,135,2.0,-999.0,98,-99.99,,,-99.99,16.240000,,2013-12-04 14:42:00,
2013-12-04 09:52:00,45.0,44.0,-100.00,SE,135,2.0,-999.0,98,-99.99,,,-99.99,16.240000,,2013-12-04 14:52:00,
2013-12-04 10:00:00,46.0,46.0,-100.00,SE,135,4.0,-999.0,99,-99.99,,,-99.99,45.240002,,2013-12-04 15:00:00,
2013-12-04 10:44:00,46.0,46.0,-100.00,SE,135,4.0,-999.0,99,-99.99,,,-99.99,45.240002,,2013-12-04 15:44:00,
2013-12-04 10:54:00,46.0,46.0,-100.00,SE,135,4.0,-999.0,99,-99.99,,,-99.99,45.240002,,2013-12-04 15:54:00,
2013-12-04 11:00:00,47.0,47.0,-100.00,SE,135,6.0,-999.0,99,-99.99,,,-99.99,77.720001,,2013-12-04 16:00:00,
2013-12-04 11:43:00,47.0,47.0,-100.00,SE,135,6.0,-999.0,99,-99.99,,,-99.99,77.720001,,2013-12-04 16:43:00,
2013-12-04 11:53:00,47.0,47.0,-100.00,SE,135,6.0,-999.0,99,-99.99,,,-99.99,77.720001,,2013-12-04 16:53:00,
2013-12-04 12:00:00,48.0,48.0,-100.00,SE,135,6.0,-999.0,98,-99.99,,,-99.99,71.919998,,2013-12-04 17:00:00,
2013-12-04 12:43:00,48.0,48.0,-100.00,SE,135,6.0,-999.0,98,-99.99,,,-99.99,71.919998,,2013-12-04 17:43:00,
2013-12-04 12:53:00,48.0,48.0,-100.00,SE,135,6.0,-999.0,98,-99.99,,,-99.99,71.919998,,2013-12-04 17:53:00,
2013-12-04 13:00:00,50.0,49.0,-100.00,SE,135,6.0,-999.0,97,-99.99,,,-99.99,70.760002,,2013-12-04 18:00:00,
2013-12-04 13:42:00,50.0,49.0,-100.00,SE,135,6.0,-999.0,97,-99.99,,,-99.99,70.760002,,2013-12-04 18:42:00,
2013-12-04 13:52:00,50.0,49.0,-100.00,SE,135,6.0,-999.0,97,-99.99,,,-99.99,70.760002,,2013-12-04 18:52:00,
2013-12-04 14:00:00,51.0,49.0,-100.00,SSE,157,6.0,-999.0,93,-99.99,,,-99.99,60.320000,,2013-12-04 19:00:00,
2013-12-04 14:42:00,51.0,49.0,-100.00,SSE,157,6.0,-999.0,93,-99.99,,,-99.99,60.320000,,2013-12-04 19:42:00,
2013-12-04 14:52:00,51.0,49.0,-100.00,SSE,157,6.0,-999.0,93,-99.99,,,-99.99,60.320000,,2013-12-04 19:52:00,
2013-12-04 15:00:00,52.0,50.0,-100.00,SE,135,6.0,-999.0,93,-99.99,,,-99.99,58.000000,,2013-12-04 20:00:00,
2013-12-04 15:42:00,52.0,50.0,-100.00,SE,135,6.0,-999.0,93,-99.99,,,-99.99,58.000000,,2013-12-04 20:42:00,
2013-12-04 15:52:00,52.0,50.0,-100.00,SE,135,6.0,-999.0,93,-99.99,,,-99.99,58.000000,,2013-12-04 20:52:00,
2013-12-04 16:00:00,52.0,50.0,-100.00,SE,135,6.0,-999.0,94,-99.99,,,-99.99,29.000000,,2013-12-04 21:00:00,
2013-12-04 16:44:00,52.0,50.0,-100.00,SE,135,6.0,-999.0,94,-99.99,,,-99.99,29.000000,,2013-12-04 21:44:00,
2013-12-04 16:54:00,52.0,50.0,-100.00,SE,135,6.0,-999.0,94,-99.99,,,-99.99,29.000000,,2013-12-04 21:54:00,
2013-12-04 17:00:00,53.0,51.0,-100.00,SE,135,6.0,-999.0,95,-99.99,,,-99.99,5.800000,,2013-12-04 22:00:00,
2013-12-04 17:43:00,53.0,51.0,-100.00,SE,135,6.0,-999.0,95,-99.99,,,-99.99,5.800000,,2013-12-04 22:43:00,
2013-12-04 17:53:00,53.0,51.0,-100.00,SE,135,6.0,-999.0,95,-99.99,,,-99.99,5.800000,,2013-12-04 22:53:00,
2013-12-04 18:00:00,54.0,53.0,-100.00,SSE,157,7.0,-999.0,96,-99.99,,,-99.99,0.000000,,2013-12-04 23:00:00,
2013-12-04 18:43:00,54.0,53.0,-100.00,SSE,157,7.0,-999.0,96,-99.99,,,-99.99,0.000000,,2013-12-04 23:43:00,
2013-12-04 18:53:00,54.0,53.0,-100.00,SSE,157,7.0,-999.0,96,-99.99,,,-99.99,0.000000,,2013-12-04 23:53:00,
2013-12-04 19:00:00,55.0,53.0,-100.00,SSE,157,5.0,-999.0,96,-99.99,,,-99.99,0.000000,,2013-12-05 00:00:00,
2013-12-04 19:42:00,55.0,53.0,-100.00,SSE,157,5.0,-999.0,96,-99.99,,,-99.99,0.000000,,2013-12-05 00:42:00,
2013-12-04 19:52:00,55.0,53.0,-100.00,SSE,157,5.0,-999.0,96,-99.99,,,-99.99,0.000000,,2013-12-05 00:52:00,
2013-12-04 20:00:00,56.0,54.0,-100.00,SSE,157,6.0,-999.0,94,-99.99,,,-99.99,0.000000,,2013-12-05 01:00:00,
2013-12-04 20:42:00,56.0,54.0,-100.00,SSE,157,6.0,-999.0,94,-99.99,,,-99.99,0.000000,,2013-12-05 01:42:00,
2013-12-04 20:52:00,56.0,54.0,-100.00,SSE,157,6.0,-999.0,94,-99.99,,,-99.99,0.000000,,2013-12-05 01:52:00,
2013-12-04 21:00:00,57.0,55.0,-100.00,SSE,157,7.0,-999.0,92,-99.99,,,-99.99,0.000000,,2013-12-05 02:00:00,
2013-12-04 21:52:00,57.0,55.0,-100.00,SSE,157,7.0,-999.0,92,-99.99,,,-99.99,0.000000,,2013-12-05 02:52:00,
2013-12-04 22:00:00,59.0,56.0,-100.00,South,180,7.0,-999.0,89,-99.99,,,-99.99,0.000000,,2013-12-05 03:00:00,
2013-12-04 22:43:00,59.0,56.0,-100.00,South,180,7.0,-999.0,89,-99.99,,,-99.99,0.000000,,2013-12-05 03:43:00,
2013-12-04 22:54:00,59.0,56.0,-100.00,South,180,7.0,-999.0,89,-99.99,,,-99.99,0.000000,,2013-12-05 03:54:00,
2013-12-04 23:00:00,58.0,55.0,-100.00,SSW,202,6.0,-999.0,90,0.01,,,-99.99,0.000000,,2013-12-05 04:00:00,
2013-12-04 23:43:00,58.0,55.0,-100.00,SSW,202,6.0,-999.0,90,0.01,,,-99.99,0.000000,,2013-12-05 04:43:00,
2013-12-04 23:53:00,58.0,55.0,-100.00,SSW,202,6.0,-999.0,90,0.01,,,-99.99,0.000000,,2013-12-05 04:53:00,